Location: *
(48.4333°N, 5.0333°W)
Time: 01:30:34
(UTC+00:00)

Cosmos 1934 Rocket - Pass Details

Date: 09 April 2020
Orbit: 937 x 1000 km, 83.0° (Epoch: 29 May)

Event Time Altitude Azimuth Distance (km) Brightness Sun altitude
Rises 22:02:08 0° 352° (N) 3,698 7.9 -25.8°
Reaches altitude 10° 22:04:42 10° 355° (N) 2,737 7.1 -26.0°
Maximum altitude 22:10:57 68° 78° (ENE) 1,041 3.9 -26.7°
Enters shadow 22:11:26 65° 106° (ESE) 1,057 3.9 -26.7°
